Madison, MN

4:12 AM CDT on July 26, 2017 (GMT -0500)
Madison-Lac Qui Parle County

Weather History for KDXX - January, 2014

Change the Weather History Date:

Thursday, January 30, 2014

  Actual Average (KAQP) Record (KAQP)
Temperature  
Mean Temperature 8 °F -  
Max Temperature 21 °F 21 °F 51 °F (2012)
Min Temperature -5 °F 5 °F -23 °F (2004)
Degree Days  
Heating Degree Days 57    
Moisture  
Dew Point 4 °F    
Average Humidity 79    
Maximum Humidity 93    
Minimum Humidity 67    
Precipitation  
Precipitation 0.02 in - - ()
Sea Level Pressure  
Sea Level Pressure 29.80 in    
Wind  
Wind Speed 13 mph (NNW)    
Max Wind Speed 26 mph    
Max Gust Speed 33 mph    
Visibility 7 miles    
Events Snow    
Averages and records for this station are not official NWS values.
T = Trace of Precipitation, MM = Missing Value Source: NWS Daily Summary

Daily Weather History Graph

Daily Weather History Graph

Search for Another Location

Airport or City:

Trip Planner

Search our weather history database for the weather conditions in past years. The results will help you decide how hot, cold, wet, or windy it might be!

Date:

Astronomy

Jan. 30, 2014 Rise Set
Actual Time 7:46 AM CST 5:29 PM CST
Civil Twilight 7:15 AM CST 6:01 PM CST
Nautical Twilight 6:39 AM CST 6:36 PM CST
Astronomical Twilight 6:05 AM CST 7:11 PM CST
Moon 7:11 AM CST (1/30) 5:45 PM CST (1/30)
Length of Visible Light 10h 46m
Length of Day
9h 43m
Waning Crescent, 0% of the Moon is Illuminated
Jan 30
Waning Crescent
Jan 30
New
Feb 6
First Quarter
Feb 14
Full
Feb 22
Last Quarter

Hourly Weather History & Observations

Time (CST) Temp. Windchill Dew Point Humidity Pressure Visibility Wind Dir Wind Speed Gust Speed Precip Events Conditions
12:14 AM 21.2 °F 12.6 °F 15.8 °F 80% 29.55 in 10.0 mi NNE 6.9 mph - N/A   Clear
12:33 AM 21.2 °F 11.7 °F 15.8 °F 80% 29.54 in 10.0 mi NNE 8.1 mph - N/A   Scattered Clouds
12:54 AM 21.2 °F 10.9 °F 15.8 °F 80% 29.53 in 10.0 mi NNE 9.2 mph - N/A   Scattered Clouds
1:14 AM 21.2 °F 10.9 °F 15.8 °F 80% 29.52 in 10.0 mi NNE 9.2 mph - N/A   Mostly Cloudy
1:33 AM 21.2 °F 9.5 °F 15.8 °F 80% 29.51 in 10.0 mi NNE 11.5 mph - N/A   Mostly Cloudy
1:54 AM 21.2 °F 11.7 °F 15.8 °F 80% 29.52 in 10.0 mi North 8.1 mph - N/A   Overcast
2:14 AM 21.2 °F 9.5 °F 15.8 °F 80% 29.51 in 4.0 mi NNE 11.5 mph - N/A Snow Light Snow
2:33 AM 19.4 °F 5.5 °F 15.8 °F 86% 29.50 in 2.5 mi NNE 15.0 mph - N/A Snow Light Snow
2:54 AM 19.4 °F 4.5 °F 15.8 °F 86% 29.50 in 2.0 mi NNE 17.3 mph - N/A Snow Light Snow
3:14 AM 19.4 °F 7.9 °F 15.8 °F 86% 29.53 in 1.8 mi NNE 10.4 mph - N/A Snow Light Snow
3:33 AM 19.4 °F 7.2 °F 15.8 °F 86% 29.52 in 1.0 mi NNE 11.5 mph - N/A Snow Snow
3:54 AM 19.4 °F 4.5 °F 15.8 °F 86% 29.50 in - North 17.3 mph - N/A   Overcast
4:14 AM - - - N/A% 29.50 in - NNE 16.1 mph - N/A   Unknown
4:34 AM 19.4 °F 6.0 °F 15.8 °F 86% 29.51 in - North 13.8 mph - N/A   Unknown
4:54 AM - - - N/A% 29.53 in - North 11.5 mph - N/A   Unknown
5:13 AM 19.4 °F 7.2 °F 15.8 °F 86% 29.55 in - North 11.5 mph - N/A   Unknown
5:34 AM 19.4 °F 7.2 °F 15.8 °F 86% 29.56 in - North 11.5 mph - N/A   Unknown
5:53 AM 17.6 °F 3.2 °F 15.8 °F 93% 29.57 in - North 15.0 mph - N/A   Mostly Cloudy
6:14 AM 17.6 °F 2.2 °F 15.8 °F 93% 29.58 in - North 17.3 mph - N/A   Unknown
6:34 AM 17.6 °F 1.7 °F 14.0 °F 86% 29.59 in - North 18.4 mph - 0.01 in   Unknown
6:53 AM 17.6 °F 2.7 °F 14.0 °F 86% 29.61 in - North 16.1 mph - 0.01 in   Unknown
7:14 AM 17.6 °F 1.7 °F 14.0 °F 86% 29.62 in - North 18.4 mph - N/A   Unknown
7:33 AM 17.6 °F 0.9 °F 12.2 °F 79% 29.63 in - North 20.7 mph - N/A   Unknown
7:54 AM 17.6 °F 0.1 °F 12.2 °F 79% 29.65 in 1.8 mi North 23.0 mph 31.1 mph N/A Snow Light Snow
8:14 AM 15.8 °F -3.4 °F 12.2 °F 86% 29.68 in 0.8 mi NNW 26.5 mph 32.2 mph N/A Snow Light Snow
8:33 AM 14.0 °F -4.7 °F 8.6 °F 79% 29.70 in 1.0 mi NNW 23.0 mph 29.9 mph N/A Snow Light Snow
8:54 AM 12.2 °F -7.1 °F 8.6 °F 85% 29.72 in 1.2 mi NNW 23.0 mph 33.4 mph N/A Snow Light Snow
9:14 AM 10.4 °F -10.3 °F 6.8 °F 85% 29.74 in 1.5 mi NNW 25.3 mph 29.9 mph N/A Snow Light Snow
9:33 AM 10.4 °F -10.3 °F 6.8 °F 85% 29.75 in 2.5 mi NNW 25.3 mph 28.8 mph N/A   Mostly Cloudy
9:54 AM 10.4 °F -8.2 °F 5.0 °F 79% 29.76 in 2.5 mi NNW 19.6 mph 32.2 mph N/A   Haze
10:13 AM 10.4 °F -9.5 °F 3.2 °F 73% 29.78 in 2.0 mi NNW 23.0 mph 31.1 mph N/A   Haze
10:34 AM 8.6 °F -13.1 °F 3.2 °F 79% 29.80 in 2.0 mi NNW 26.5 mph 31.1 mph N/A   Haze
10:54 AM 8.6 °F -12.3 °F 1.4 °F 73% 29.81 in 2.0 mi NNW 24.2 mph 32.2 mph N/A   Haze
11:13 AM 8.6 °F -12.3 °F 1.4 °F 73% 29.83 in 3.0 mi NNW 24.2 mph 29.9 mph N/A   Haze
11:34 AM 6.8 °F -13.8 °F -0.4 °F 72% 29.85 in 5.0 mi NNW 21.9 mph 26.5 mph N/A   Haze
11:54 AM 6.8 °F -12.9 °F -0.4 °F 72% 29.86 in 5.0 mi NNW 19.6 mph 25.3 mph N/A   Haze
12:13 PM 6.8 °F -14.7 °F -0.4 °F 72% 29.86 in 5.0 mi NNW 24.2 mph 27.6 mph N/A   Haze
12:34 PM 6.8 °F -14.3 °F -0.4 °F 72% 29.86 in 2.5 mi NNW 23.0 mph 31.1 mph N/A   Haze
12:54 PM 6.8 °F -15.5 °F -0.4 °F 72% 29.87 in 3.0 mi NNW 26.5 mph 29.9 mph N/A   Haze
1:13 PM 6.8 °F -13.4 °F -0.4 °F 72% 29.88 in 3.0 mi NNW 20.7 mph 25.3 mph N/A   Haze
1:34 PM 6.8 °F -13.4 °F -0.4 °F 72% 29.88 in 5.0 mi NNW 20.7 mph - N/A   Haze
1:54 PM 6.8 °F -14.3 °F -0.4 °F 72% 29.89 in 4.0 mi NNW 23.0 mph 28.8 mph N/A   Haze
2:13 PM 6.8 °F -13.4 °F 1.4 °F 79% 29.89 in 2.5 mi NNW 20.7 mph 26.5 mph N/A   Haze
2:34 PM 8.6 °F -11.0 °F -0.4 °F 67% 29.89 in 7.0 mi NNW 20.7 mph 26.5 mph N/A   Scattered Clouds
2:54 PM 8.6 °F -11.4 °F 1.4 °F 73% 29.89 in 5.0 mi NNW 21.9 mph - N/A   Haze
3:13 PM 8.6 °F -8.3 °F 1.4 °F 73% 29.91 in 10.0 mi NNW 15.0 mph - N/A   Clear
3:34 PM 8.6 °F -8.3 °F 1.4 °F 73% 29.90 in 10.0 mi NNW 15.0 mph - N/A   Clear
3:54 PM 8.6 °F -6.3 °F 1.4 °F 73% 29.92 in 10.0 mi NW 11.5 mph - N/A   Clear
4:14 PM 8.6 °F -4.7 °F 1.4 °F 73% 29.93 in 10.0 mi NW 9.2 mph - N/A   Clear
4:34 PM 8.6 °F -3.7 °F 1.4 °F 73% 29.94 in 10.0 mi NNW 8.1 mph - 0.01 in   Clear
4:54 PM 8.6 °F -4.7 °F 1.4 °F 73% 29.95 in 10.0 mi NW 9.2 mph - 0.01 in   Clear
5:13 PM 6.8 °F -5.9 °F 1.4 °F 79% 29.96 in 10.0 mi NNW 8.1 mph - N/A   Clear
5:34 PM 5.0 °F -5.6 °F -0.4 °F 78% 29.96 in 10.0 mi NNW 5.8 mph - N/A   Clear
5:54 PM 3.2 °F -10.3 °F -0.4 °F 85% 29.96 in 10.0 mi North 8.1 mph - N/A   Clear
6:13 PM 3.2 °F -10.3 °F -2.2 °F 78% 29.97 in 10.0 mi North 8.1 mph - N/A   Clear
6:34 PM 1.4 °F -8.3 °F -2.2 °F 85% 29.98 in 10.0 mi North 4.6 mph - N/A   Clear
6:54 PM 1.4 °F -6.2 °F -4.0 °F 78% 30.00 in 10.0 mi West 3.5 mph - N/A   Clear
7:13 PM 1.4 °F -6.2 °F -4.0 °F 78% 30.00 in 10.0 mi NNW 3.5 mph - N/A   Clear
7:34 PM -0.4 °F -12.0 °F -4.0 °F 85% 30.01 in 10.0 mi NNW 5.8 mph - N/A   Clear
7:54 PM -0.4 °F -12.0 °F -5.8 °F 78% 30.01 in 10.0 mi NNW 5.8 mph - N/A   Clear
8:13 PM 1.4 °F -9.9 °F -4.0 °F 78% 30.01 in 10.0 mi NW 5.8 mph - N/A   Clear
8:34 PM -0.4 °F -12.0 °F -5.8 °F 78% 30.02 in 10.0 mi WNW 5.8 mph - N/A   Clear
8:54 PM -0.4 °F -12.0 °F -7.6 °F 72% 30.03 in 10.0 mi WNW 5.8 mph - N/A   Clear
9:13 PM -2.2 °F -15.6 °F -7.6 °F 78% 30.04 in 10.0 mi WNW 6.9 mph - N/A   Clear
9:34 PM -2.2 °F - -7.6 °F 78% 30.06 in 10.0 mi Calm Calm - N/A   Clear
9:53 PM -2.2 °F - -7.6 °F 78% 30.07 in 10.0 mi Calm Calm - N/A   Clear
10:14 PM -5.8 °F - -9.4 °F 84% 30.07 in 10.0 mi Calm Calm - N/A   Clear
10:34 PM -2.2 °F -12.5 °F -7.6 °F 78% 30.08 in 10.0 mi West 4.6 mph - N/A   Clear
10:53 PM -4.0 °F -12.4 °F -9.4 °F 78% 30.09 in 10.0 mi West 3.5 mph - N/A   Clear
11:14 PM -2.2 °F -10.4 °F -7.6 °F 78% 30.09 in 10.0 mi WSW 3.5 mph - N/A   Clear
11:34 PM -2.2 °F -14.2 °F -7.6 °F 78% 30.08 in 10.0 mi West 5.8 mph - N/A   Clear
11:53 PM -2.2 °F -14.2 °F -7.6 °F 78% 30.08 in 10.0 mi West 5.8 mph - N/A   Clear